| time (UTC) | temp C | wind direction | speed KPH | gust KPH | rain 1hr cm | rain 24hr cm | rain mn cm | humidity % | barometer mb |
| 20260906154519 | 30 | 101 | 3.2 | 11.3 | 0.00 | 0.00 | 0.00 | 73 | 1017.0 |
| 20260906153009 | 30 | 300 | 3.2 | 9.7 | 0.00 | 0.00 | 0.00 | 72 | 1017.0 |
| 20260906151533 | 29 | 36 | 4.8 | 12.9 | 0.00 | 0.00 | 0.00 | 73 | 1016.8 |
| 20260906150031 | 28 | 98 | 3.2 | 9.7 | 0.00 | 0.00 | 0.00 | 73 | 1016.8 |
| 20260906144532 | 28 | 8 | 3.2 | 6.4 | 0.00 | 0.00 | 0.00 | 72 | 1016.6 |
| 20260906143033 | 28 | 86 | 3.2 | 8.0 | 0.00 | 0.00 | 0.00 | 74 | 1016.4 |
| 20260906141519 | 28 | 36 | 4.8 | 9.7 | 0.00 | 0.00 | 0.00 | 73 | 1016.5 |
| 20260906140029 | 27 | 359 | 3.2 | 9.7 | 0.00 | 0.00 | 0.00 | 75 | 1016.4 |
| 20260906134512 | 27 | 157 | 1.6 | 6.4 | 0.00 | 0.00 | 0.00 | 78 | 1016.3 |
| 20260906133033 | 26 | 34 | 3.2 | 8.0 | 0.00 | 0.00 | 0.00 | 81 | 1016.2 |
| 20260906131540 | 26 | 23 | 3.2 | 8.0 | 0.00 | 0.00 | 0.00 | 85 | 1016.1 |
| 20260906130029 | 25 | 96 | 1.6 | 9.7 | 0.00 | 0.00 | 0.00 | 87 | 1016.0 |
| 20260906124527 | 24 | 321 | 1.6 | 4.8 | 0.00 | 0.00 | 0.00 | 90 | 1016.1 |
| 20260906123024 | 23 | 335 | 1.6 | 1.6 | 0.00 | 0.00 | 0.00 | 94 | 1016.0 |
| 20260906121525 | 22 | 321 | 0.0 | 1.6 | 0.00 | 0.00 | 0.00 | 94 | 1015.8 |
| 20260906120018 | 22 | 321 | 0.0 | 0.0 | 0.00 | 0.00 | 0.00 | 94 | 1015.6 |
| 20260906114514 | 22 | 321 | 0.0 | 0.0 | 0.00 | 0.00 | 0.00 | 94 | 1015.5 |
| 20260906113031 | 22 | 321 | 0.0 | 1.6 | 0.00 | 0.00 | 0.00 | 94 | 1015.4 |
| 20260906111532 | 22 | 307 | 0.0 | 1.6 | 0.00 | 0.00 | 0.00 | 94 | 1015.3 |
| 20260906110028 | 22 | 307 | 0.0 | 1.6 | 0.00 | 0.00 | 0.00 | 94 | 1015.3 |
| 20260906104534 | 22 | 290 | 0.0 | 1.6 | 0.00 | 0.00 | 0.00 | 94 | 1015.2 |
| 20260906103024 | 22 | 290 | 0.0 | 0.0 | 0.00 | 0.00 | 0.00 | 93 | 1015.1 |
| 20260906101523 | 22 | 290 | 0.0 | 1.6 | 0.00 | 0.00 | 0.00 | 93 | 1015.1 |
| 20260906100019 | 22 | 290 | 0.0 | 1.6 | 0.00 | 0.00 | 0.00 | 94 | 1014.9 |
| 20260906094537 | 22 | 32 | 0.0 | 1.6 | 0.00 | 0.00 | 0.00 | 95 | 1014.8 |
| 20260906093036 | 21 | 100 | 0.0 | 0.0 | 0.00 | 0.00 | 0.00 | 94 | 1014.5 |
| 20260906091529 | 21 | 100 | 0.0 | 1.6 | 0.00 | 0.00 | 0.00 | 94 | 1014.4 |
| 20260906090030 | 21 | 100 | 0.0 | 1.6 | 0.00 | 0.00 | 0.00 | 94 | 1014.3 |
| 20260906084542 | 21 | 100 | 0.0 | 1.6 | 0.00 | 0.00 | 0.00 | 94 | 1014.1 |
| 20260906083034 | 21 | 100 | 0.0 | 1.6 | 0.00 | 0.00 | 0.00 | 94 | 1014.2 |
| 20260906081524 | 21 | 100 | 0.0 | 0.0 | 0.00 | 0.00 | 0.00 | 93 | 1014.2 |
| 20260906080028 | 21 | 100 | 0.0 | 0.0 | 0.00 | 0.00 | 0.00 | 93 | 1014.1 |
| 20260906074516 | 22 | 100 | 0.0 | 0.0 | 0.00 | 0.00 | 0.00 | 93 | 1014.1 |
| 20260906073014 | 22 | 100 | 0.0 | 0.0 | 0.00 | 0.00 | 0.00 | 93 | 1014.3 |
| 20260906071508 | 22 | 100 | 0.0 | 0.0 | 0.00 | 0.00 | 0.00 | 93 | 1014.3 |
| 20260906070007 | 22 | 100 | 0.0 | 0.0 | 0.00 | 0.00 | 0.00 | 92 | 1014.4 |
| 20260906064507 | 22 | 100 | 0.0 | 1.6 | 0.00 | 0.00 | 0.00 | 92 | 1014.5 |
| 20260906063026 | 22 | 101 | 0.0 | 0.0 | 0.00 | 0.00 | 0.00 | 91 | 1014.6 |
| 20260906061524 | 22 | 100 | 0.0 | 0.0 | 0.00 | 0.00 | 0.00 | 91 | 1014.6 |
| 20260906060027 | 22 | 101 | 0.0 | 1.6 | 0.00 | 0.00 | 0.00 | 91 | 1014.5 |
| 20260906054517 | 22 | 100 | 0.0 | 0.0 | 0.00 | 0.00 | 0.00 | 92 | 1014.5 |
| 20260906053013 | 22 | 100 | 0.0 | 1.6 | 0.00 | 0.00 | 0.00 | 91 | 1014.5 |
| 20260906051508 | 22 | 100 | 0.0 | 1.6 | 0.00 | 0.00 | 0.00 | 90 | 1014.4 |
| 20260906050009 | 23 | 100 | 0.0 | 0.0 | 0.00 | 0.00 | 0.00 | 90 | 1014.5 |
| 20260906044528 | 23 | 100 | 0.0 | 0.0 | 0.00 | 0.00 | 0.00 | 89 | 1014.4 |
| 20260906043035 | 23 | 100 | 0.0 | 0.0 | 0.00 | 0.00 | 0.00 | 89 | 1014.5 |
| 20260906041527 | 23 | 100 | 0.0 | 1.6 | 0.00 | 0.00 | 0.00 | 89 | 1014.5 |
| 20260906040030 | 23 | 100 | 0.0 | 1.6 | 0.00 | 0.00 | 0.00 | 88 | 1014.3 |
| 20260906034530 | 24 | 100 | 0.0 | 1.6 | 0.00 | 0.00 | 0.00 | 87 | 1014.3 |
| 20260906033023 | 24 | 100 | 0.0 | 0.0 | 0.00 | 0.00 | 0.00 | 88 | 1014.2 |
| 20260906031511 | 24 | 100 | 0.0 | 1.6 | 0.00 | 0.00 | 0.00 | 86 | 1014.2 |
| 20260906030030 | 25 | 101 | 0.0 | 0.0 | 0.00 | 0.00 | 0.00 | 84 | 1014.1 |
| 20260906024531 | 25 | 100 | 0.0 | 0.0 | 0.00 | 0.00 | 0.00 | 83 | 1014.0 |
| 20260906023029 | 26 | 101 | 0.0 | 1.6 | 0.00 | 0.00 | 0.00 | 80 | 1013.8 |
| 20260906021527 | 26 | 100 | 0.0 | 4.8 | 0.00 | 0.00 | 0.00 | 77 | 1013.7 |
| 20260906020024 | 25 | 345 | 0.0 | 1.6 | 0.00 | 0.00 | 0.00 | 82 | 1013.5 |
| 20260906014531 | 26 | 345 | 0.0 | 0.0 | 0.00 | 0.00 | 0.00 | 80 | 1013.4 |
| 20260906013016 | 27 | 345 | 0.0 | 0.0 | 0.00 | 0.00 | 0.00 | 74 | 1013.1 |
| 20260906011517 | 27 | 345 | 0.0 | 1.6 | 0.00 | 0.00 | 0.00 | 72 | 1013.1 |
| 20260906010033 | 27 | 345 | 0.0 | 3.2 | 0.00 | 0.00 | 0.00 | 79 | 1012.8 |
| 20260906004536 | 28 | 30 | 0.0 | 0.0 | 0.00 | 0.00 | 0.00 | 81 | 1012.7 |
| 20260906003044 | 28 | 30 | 0.0 | 1.6 | 0.00 | 0.00 | 0.00 | 78 | 1012.7 |
| 20260906001526 | 30 | 30 | 0.0 | 0.0 | 0.00 | 0.00 | 0.00 | 73 | 1012.8 |
| 20260906000023 | 31 | 29 | 0.0 | 1.6 | 0.00 | 0.00 | 0.00 | 69 | 1013.0 |
| 20260905234517 | 31 | 30 | 0.0 | 1.6 | 0.00 | 0.00 | 0.00 | 64 | 1012.9 |
| 20260905233017 | 33 | 30 | 0.0 | 0.0 | 0.00 | 0.00 | 0.00 | 57 | 1013.0 |
| 20260905231515 | 35 | 30 | 0.0 | 1.6 | 0.00 | 0.00 | 0.00 | 50 | 1013.0 |
| 20260905230015 | 35 | 30 | 0.0 | 3.2 | 0.00 | 0.00 | 0.00 | 46 | 1012.8 |
| 20260905224520 | 36 | 59 | 1.6 | 6.4 | 0.00 | 0.00 | 0.00 | 43 | 1012.7 |
| 20260905223005 | 36 | 36 | 1.6 | 6.4 | 0.00 | 0.00 | 0.00 | 42 | 1012.9 |
| 20260905221504 | 36 | 53 | 3.2 | 8.0 | 0.00 | 0.00 | 0.00 | 43 | 1012.9 |
| 20260905220025 | 37 | 280 | 1.6 | 4.8 | 0.00 | 0.00 | 0.00 | 40 | 1012.9 |
| 20260905214521 | 37 | 89 | 0.0 | 6.4 | 0.00 | 0.00 | 0.00 | 42 | 1012.8 |
| 20260905213034 | 36 | 298 | 3.2 | 6.4 | 0.00 | 0.00 | 0.00 | 42 | 1012.9 |
| 20260905211510 | 36 | 334 | 3.2 | 8.0 | 0.00 | 0.00 | 0.00 | 39 | 1012.9 |
| 20260905210013 | 36 | 300 | 3.2 | 8.0 | 0.00 | 0.00 | 0.00 | 44 | 1013.1 |
| 20260905204506 | 37 | 307 | 1.6 | 8.0 | 0.00 | 0.00 | 0.00 | 39 | 1013.3 |
| 20260905203006 | 36 | 19 | 3.2 | 12.9 | 0.00 | 0.00 | 0.00 | 43 | 1013.6 |
| 20260905201524 | 36 | 21 | 1.6 | 11.3 | 0.00 | 0.00 | 0.00 | 41 | 1013.8 |
| 20260905200024 | 36 | 300 | 4.8 | 12.9 | 0.00 | 0.00 | 0.00 | 42 | 1013.9 |
| 20260905194518 | 37 | 324 | 8.0 | 12.9 | 0.00 | 0.00 | 0.00 | 42 | 1014.0 |
| 20260905193014 | 36 | 14 | 3.2 | 8.0 | 0.00 | 0.00 | 0.00 | 40 | 1014.0 |
| 20260905191513 | 35 | 330 | 3.2 | 8.0 | 0.00 | 0.00 | 0.00 | 42 | 1014.2 |
| 20260905190011 | 37 | 198 | 4.8 | 8.0 | 0.00 | 0.00 | 0.00 | 40 | 1014.4 |
| 20260905184506 | 36 | 293 | 1.6 | 9.7 | 0.00 | 0.00 | 0.00 | 42 | 1014.6 |
| 20260905183025 | 36 | 219 | 1.6 | 11.3 | 0.00 | 0.00 | 0.00 | 42 | 1014.6 |
| 20260905181533 | 36 | 340 | 3.2 | 9.7 | 0.00 | 0.00 | 0.00 | 42 | 1014.9 |
| 20260905180023 | 36 | 86 | 4.8 | 11.3 | 0.00 | 0.00 | 0.00 | 43 | 1014.9 |
| 20260905174518 | 35 | 352 | 4.8 | 9.7 | 0.00 | 0.00 | 0.00 | 47 | 1015.1 |
| 20260905173015 | 35 | 354 | 4.8 | 9.7 | 0.00 | 0.00 | 0.00 | 49 | 1015.1 |
| 20260905171522 | 35 | 300 | 3.2 | 8.0 | 0.00 | 0.00 | 0.00 | 53 | 1015.3 |
| 20260905170007 | 35 | 316 | 3.2 | 8.0 | 0.00 | 0.00 | 0.00 | 50 | 1015.5 |
| 20260905164527 | 34 | 284 | 3.2 | 11.3 | 0.00 | 0.00 | 0.00 | 53 | 1015.7 |
| 20260905163029 | 34 | 270 | 3.2 | 6.4 | 0.00 | 0.00 | 0.00 | 52 | 1015.8 |
| 20260905161526 | 33 | 328 | 4.8 | 8.0 | 0.00 | 0.00 | 0.00 | 57 | 1015.8 |
| 20260905160037 | 33 | 254 | 4.8 | 11.3 | 0.00 | 0.00 | 0.00 | 53 | 1015.8 |